Weather Roundup
Issued by NWS Chicago, IL

Home | Current Version | Previous Version | Text Only | Print | Product List | Glossary On
Versions: 1 2 3 4 5 6 7 8 9 10 11 12 13 14 15 16 17 18 19 20 21 22 23 24 25 26 27 28 29 30 31 32 33 34 35 36 37 38 39 40 41 42 43 44 45 46 47 48 49 50
000
NZUS59 KLOT 251003
HRRLOT

CHICAGO AREA WEATHER ROUNDUP
NATIONAL WEATHER SERVICE CHICAGO/ROMEOVILLE IL
400 AM CST SAT FEB 25 2017

NOTE: "FAIR" INDICATES FEW OR NO CLOUDS BELOW 12,000 FEET WITH NO
SIGNIFICANT WEATHER AND/OR OBSTRUCTIONS TO VISIBILITY.

* THESE STATIONS ARE NOT UNDER NWS QUALITY CONTROL. THEY ALSO MAY NOT
  REPORT WEATHER SUCH AS PRECIPITATION OR FOG.

ILZ005-006-012>014-019>023-251100-
NORTHEAST ILLINOIS

CITY           SKY/WX    TMP DP  RH WIND       PRES   REMARKS
OHARE          CLOUDY    29  22  75 W17       29.63R WCI  17
MIDWAY         FLURRIES  31  23  72 W16G22    29.63R WCI  20
AURORA         FLURRIES  28  22  78 NW18      29.66R WCI  15
LANSING*       PTCLDY    30  26  84 W13       29.63S WCI  20
JOLIET*        LGT RAIN  31  26  82 W14G22    29.67R WCI  20
WAUKEGAN       LGT SNOW  25  20  81 NW9G18    29.62R WCI  15
DUPAGE AIRPORT FLURRIES  26  20  77 NW16      29.65R WCI  14
WHEELING       CLOUDY    27  21  78 NW13G23   29.64R WCI  16
KANKAKEE*      MIX PCPN  31  26  80 W18G26    29.67R WCI  20
MORRIS*        CLOUDY    29  24  84 NW21G28   29.67R WCI  15
LEWIS AIRPORT* CLOUDY    29  27  93 NW14      29.65R WCI  18
NORTHERLY ISL    N/A     31  24  76 W15         N/A  WCI  20
$$

WIZ051-052-058>065-066-070>072-251100-
SOUTHEAST WISCONSIN

CITY           SKY/WX    TMP DP  RH WIND       PRES   REMARKS
MILWAUKEE      LGT SNOW  24  18  77 W14G22    29.61R WCI  12
KENOSHA*       CLOUDY    24  19  81 NW15      29.62R WCI  11
RACINE*        LGT SNOW  24  18  77 NW12G23   29.63R WCI  13
WAUKESHA       CLOUDY    19  18  93 NW18      29.62S WCI   4
WEST BEND      LGT SNOW  21  19  93 W5        29.60S WCI  15
$$

INZ001>003-010>013-019-020-251100-
NORTHWEST INDIANA

CITY           SKY/WX    TMP DP  RH WIND       PRES   REMARKS
GARY*          NOT AVBL
MICHIGAN CITY* NOT AVBL
RENSSELAER*    NOT AVBL
VALPARAISO     CLOUDY    32  24  72 W20G28    29.62R WCI  20
$$

LMZ740>746-251100-
SOUTHERN LAKE MICHIGAN

STATION/POSITION TIME  SKY/WX   TEMP WIND        PRES    VSBY
                                AIR  DIR/SP/G
                 (UTC)          (F)  (DEG/KT/KT) (MB)    (MI)
HARRISON CRIB    0940            31  280/ 15/ 18   N/A
BURNHAM HARBOR   1000            31  250/  9/ 16   N/A
CALUMET HARBOR   0930            31  260/  6/ 12 1002.7R
BURNS HARBOR     0940            33  280/ 17/ 22 1003.4R
MICHIGAN CITY    0940            32  250/ 25/ 27   N/A
$$

ABBREVIATIONS USED IN REMARKS
   TC - TEMPERATURE IN CELSIUS
  WCI - WIND CHILL INDEX
   HX - HEAT INDEX
  VSB - VISIBILITY
$$



USA.gov is the U.S. government's official web portal to all federal, state and local government web resources and services.